N0YK Weather Reports


Display with metric or nautical units.
time (UTC)temp
F
wind
direction
speed
MPH
gust
MPH
rain 1hr
in
rain 24hr
in
rain mn
in
humidity
%
barometer
mb
20260507134503 45 238 5.0 10.0 0.00 0.12 0.00 85 1017.9
20260507134002 44 246 4.0 12.0 0.00 0.12 0.00 87 1018.0
20260507133503 43 236 5.0 12.0 0.00 0.39 0.00 87 1017.7
20260507133002 42 243 3.0 7.0 0.00 0.12 0.00 88 1017.7
20260507132503 41 211 3.0 8.0 0.00 0.13 0.00 88 1017.7
20260507132023 41 223 4.0 11.0 0.00 0.14 0.00 89 1017.9
20260507131502 40 300 4.0 11.0 0.00 0.14 0.00 89 1018.0
20260507131002 40 225 3.0 7.0 0.00 0.14 0.00 90 1018.0
20260507130502 39 207 3.0 6.0 0.00 0.15 0.00 90 1017.9
20260507130002 38 247 3.0 8.0 0.00 0.15 0.00 90 1018.1
20260507125502 38 235 3.0 8.0 0.00 0.15 0.00 91 1017.9
20260507125023 38 219 3.0 7.0 0.00 0.16 0.00 91 1018.0
20260507124544 37 209 3.0 7.0 0.00 0.16 0.00 91 1017.8
20260507124003 37 229 3.0 6.0 0.00 0.16 0.00 92 1018.0
20260507123502 36 226 3.0 5.0 0.00 0.17 0.00 92 1018.1
20260507123002 35 225 2.0 5.0 0.00 0.17 0.00 92 1018.2
20260507122503 35 224 2.0 5.0 0.00 0.18 0.00 92 1018.2
20260507122002 35 221 2.0 6.0 0.00 0.18 0.00 92 1018.4
20260507121503 34 200 2.0 6.0 0.00 0.18 0.00 92 1018.3
20260507121002 34 215 3.0 4.0 0.00 0.19 0.00 92 1018.3
20260507120503 33 253 3.0 4.0 0.00 0.19 0.00 92 1018.4
20260507120002 33 253 2.0 3.0 0.00 0.19 0.00 92 1018.4
20260507115502 33 253 1.0 3.0 0.00 0.20 0.00 92 1018.5
20260507115003 33 253 1.0 3.0 0.00 0.20 0.00 92 1018.4
20260507114502 33 253 1.0 3.0 0.00 0.20 0.00 92 1018.5
20260507114003 33 267 2.0 3.0 0.00 0.21 0.00 92 1018.5
20260507113523 33 106 1.0 3.0 0.00 0.21 0.00 92 1018.6
20260507113003 34 258 1.0 5.0 0.00 0.21 0.00 92 1018.5
20260507112523 34 200 2.0 5.0 0.00 0.21 0.00 92 1018.5
20260507112003 34 219 3.0 5.0 0.00 0.22 0.00 92 1018.4
20260507111503 34 221 3.0 4.0 0.00 0.22 0.00 92 1018.5
20260507111003 34 206 1.0 4.0 0.00 0.23 0.00 92 1018.6
20260507110502 34 234 2.0 4.0 0.00 0.23 0.00 91 1018.5
20260507110002 34 234 1.0 3.0 0.00 0.23 0.00 92 1018.6
20260507105502 34 234 1.0 5.0 0.00 0.24 0.00 92 1018.7
20260507105002 34 230 2.0 5.0 0.00 0.24 0.00 92 1018.7
20260507104503 34 203 3.0 5.0 0.00 0.24 0.00 92 1018.8
20260507104003 34 245 2.0 5.0 0.00 0.25 0.00 92 1019.1
20260507103502 34 217 3.0 5.0 0.00 0.25 0.00 92 1019.0
20260507103002 34 244 2.0 5.0 0.00 0.26 0.00 92 1019.1
20260507102502 34 214 3.0 6.0 0.00 0.26 0.00 92 1019.0
20260507102002 34 218 3.0 6.0 0.00 0.27 0.00 92 1019.2
20260507101502 34 204 2.0 5.0 0.00 0.27 0.00 92 1019.1
20260507101002 34 205 3.0 5.0 0.00 0.27 0.00 92 1019.2
20260507100502 34 218 3.0 5.0 0.00 0.27 0.00 92 1019.3
20260507100002 34 217 3.0 6.0 0.00 0.28 0.00 92 1019.3
20260507095502 34 236 2.0 6.0 0.00 0.28 0.00 92 1019.4
20260507095002 34 263 3.0 6.0 0.00 0.28 0.00 92 1019.5
20260507094503 34 242 3.0 6.0 0.00 0.28 0.00 92 1019.5
20260507094003 34 254 2.0 6.0 0.00 0.29 0.00 92 1019.6
20260507093502 34 217 2.0 5.0 0.00 0.29 0.00 91 1019.6
20260507093003 34 237 2.0 6.0 0.00 0.29 0.00 91 1019.7
20260507092524 34 232 2.0 6.0 0.00 0.29 0.00 91 1019.7
20260507092002 34 214 3.0 6.0 0.00 0.29 0.00 91 1019.7
20260507091503 35 216 3.0 6.0 0.00 0.29 0.00 91 1019.7
20260507091002 35 243 3.0 7.0 0.00 0.30 0.00 91 1019.7
20260507090523 35 229 3.0 7.0 0.00 0.30 0.00 92 1019.7
20260507090002 35 210 4.0 9.0 0.00 0.30 0.00 92 1019.5
20260507085502 35 214 4.0 9.0 0.00 0.30 0.00 92 1019.7
20260507085023 35 213 4.0 9.0 0.00 0.30 0.00 92 1019.7
20260507084523 35 221 4.0 9.0 0.00 0.30 0.00 92 1019.7
20260507084003 35 219 4.0 7.0 0.00 0.30 0.00 92 1019.7
20260507083502 35 221 4.0 7.0 0.00 0.30 0.00 92 1019.9
20260507083003 35 221 3.0 7.0 0.00 0.30 0.00 92 1020.1
20260507082523 35 234 3.0 8.0 0.00 0.30 0.00 92 1020.1
20260507082002 35 236 4.0 8.0 0.00 0.31 0.00 92 1020.2
20260507081503 35 232 3.0 8.0 0.00 0.31 0.00 92 1020.2
20260507081002 35 216 4.0 8.0 0.00 0.31 0.00 92 1020.4
20260507080503 35 237 3.0 8.0 0.00 0.31 0.00 92 1020.5
20260507080002 35 226 3.0 7.0 0.00 0.31 0.00 92 1020.6
20260507075502 35 245 4.0 7.0 0.00 0.31 0.00 92 1020.7
20260507075023 35 221 3.0 6.0 0.00 0.31 0.00 92 1020.8
20260507074523 35 248 2.0 6.0 0.00 0.31 0.00 92 1020.8
20260507074024 35 240 2.0 5.0 0.00 0.31 0.00 91 1020.8
20260507073502 36 233 2.0 5.0 0.00 0.32 0.00 91 1021.0
20260507073003 36 217 2.0 6.0 0.00 0.32 0.00 92 1021.0
20260507072502 36 239 2.0 6.0 0.00 0.32 0.00 92 1021.0
20260507072024 36 241 2.0 8.0 0.00 0.32 0.00 92 1021.1
20260507071503 36 224 3.0 8.0 0.00 0.32 0.00 92 1021.1
20260507071002 36 219 4.0 8.0 0.00 0.33 0.00 92 1021.1
20260507070503 36 221 3.0 8.0 0.00 0.33 0.00 91 1021.2
20260507070023 36 213 4.0 7.0 0.00 0.33 0.00 91 1021.2
20260507065502 36 212 4.0 7.0 0.00 0.33 0.00 91 1021.3
20260507065003 36 212 3.0 7.0 0.00 0.33 0.00 91 1021.4
20260507064502 36 207 4.0 7.0 0.00 0.34 0.00 91 1021.4
20260507064024 36 211 3.0 7.0 0.00 0.34 0.00 91 1021.4
20260507063502 37 206 3.0 7.0 0.00 0.34 0.00 91 1021.5
20260507063003 37 216 3.0 6.0 0.00 0.34 0.00 91 1021.5
20260507062502 37 215 4.0 7.0 0.00 0.34 0.00 91 1021.6
20260507062002 37 213 4.0 8.0 0.00 0.34 0.00 91 1021.5
20260507061503 37 210 3.0 8.0 0.00 0.34 0.00 91 1021.7
20260507061002 37 215 3.0 6.0 0.00 0.34 0.00 91 1021.6
20260507060503 37 218 3.0 6.0 0.00 0.34 0.00 91 1021.8
20260507060002 37 235 2.0 6.0 0.00 0.35 0.00 91 1021.8
20260507055523 37 226 2.0 7.0 0.00 0.35 0.00 91 1021.8
20260507055003 37 225 3.0 7.0 0.00 0.35 0.00 91 1021.8
20260507054024 37 228 2.0 6.0 0.00 0.36 0.00 91 1021.9
20260507053502 37 243 2.0 7.0 0.00 0.36 0.00 91 1021.9
20260507053003 37 228 3.0 7.0 0.00 0.37 0.00 91 1021.8
20260507052502 37 222 3.0 6.0 0.00 0.38 0.00 91 1022.0
20260507052003 37 208 3.0 7.0 0.00 0.38 0.00 91 1022.0
20260507051502 37 208 4.0 7.0 0.00 0.39 0.00 91 1022.0
20260507051002 37 216 3.0 6.0 0.00 0.55 0.39 91 1021.9
20260507050502 37 211 3.0 5.0 0.00 0.55 0.39 91 1021.9
20260507050002 37 207 3.0 5.0 0.00 0.39 0.39 91 1022.0
20260507045502 38 207 3.0 6.0 0.00 0.40 0.39 91 1022.0
20260507045023 38 209 3.0 7.0 0.00 0.41 0.39 91 1022.1
20260507044502 38 212 4.0 7.0 0.00 0.42 0.39 91 1022.1
20260507044003 38 210 4.0 6.0 0.00 0.43 0.39 91 1022.2
20260507043502 38 200 3.0 6.0 0.00 0.44 0.39 91 1022.3
20260507043003 38 224 3.0 6.0 0.00 0.45 0.39 91 1022.2
20260507042502 38 217 3.0 6.0 0.00 0.45 0.39 91 1022.2
20260507042002 38 201 3.0 7.0 0.00 0.46 0.39 91 1022.1
20260507041502 38 212 4.0 7.0 0.00 0.46 0.39 91 1022.2
20260507041002 38 216 3.0 5.0 0.00 0.47 0.39 91 1022.3
20260507040502 38 211 2.0 5.0 0.00 0.47 0.39 91 1022.2
20260507040002 38 216 2.0 5.0 0.00 0.48 0.39 91 1022.1
20260507035502 38 219 3.0 7.0 0.00 0.49 0.39 91 1022.1
20260507035014 38 229 2.0 7.0 0.00 0.50 0.39 91 1022.3
20260507034503 38 222 2.0 6.0 0.00 0.51 0.39 91 1022.4
20260507034002 38 237 2.0 5.0 0.00 0.52 0.39 90 1022.4
20260507033524 39 226 1.0 5.0 0.00 0.52 0.39 90 1022.3
20260507033002 39 236 3.0 5.0 0.00 0.53 0.39 90 1022.2
20260507032502 39 218 2.0 5.0 0.00 0.54 0.39 90 1022.3
20260507032002 39 224 2.0 5.0 0.00 0.54 0.39 90 1022.2
20260507031502 39 223 1.0 7.0 0.00 0.54 0.39 90 1022.2
20260507031003 39 233 3.0 8.0 0.00 0.55 0.39 90 1022.1
20260507030502 39 237 4.0 8.0 0.00 0.55 0.39 90 1022.2
20260507030002 39 233 3.0 5.0 0.00 0.55 0.39 90 1022.2
20260507025502 39 240 2.0 5.0 0.00 0.55 0.39 90 1022.0
20260507025002 39 243 2.0 5.0 0.00 0.55 0.39 89 1021.9
20260507024502 39 237 3.0 5.0 0.00 0.55 0.39 89 1021.8
20260507024002 40 247 1.0 4.0 0.00 0.55 0.39 89 1021.7
20260507023503 40 229 2.0 3.0 0.00 0.55 0.39 88 1021.7
20260507023002 40 227 1.0 3.0 0.00 0.55 0.39 88 1021.7
20260507022503 41 228 2.0 4.0 0.00 0.55 0.39 88 1021.6
20260507022002 41 229 2.0 4.0 0.00 0.55 0.39 88 1021.6
20260507021502 42 247 2.0 4.0 0.00 0.55 0.39 87 1021.5
20260507021002 42 256 2.0 4.0 0.00 0.55 0.39 87 1021.4
20260507020502 42 253 2.0 3.0 0.00 0.55 0.39 87 1021.3
20260507020002 43 251 1.0 5.0 0.00 0.55 0.39 86 1021.2
20260507015502 43 259 2.0 5.0 0.00 0.55 0.39 86 1021.2
20260507015003 43 249 3.0 5.0 0.00 0.55 0.39 86 1021.3
20260507014502 44 253 4.0 5.0 0.00 0.55 0.39 86 1021.3
20260507014002 44 254 3.0 6.0 0.00 0.55 0.39 86 1021.3
20260507013524 44 253 4.0 7.0 0.00 0.55 0.39 85 1021.1
20260507013002 44 256 5.0 7.0 0.00 0.55 0.39 85 1021.1
20260507012503 45 258 3.0 6.0 0.00 0.55 0.39 85 1021.1
20260507012002 45 251 4.0 6.0 0.00 0.55 0.39 85 1021.1
20260507011503 45 252 4.0 6.0 0.00 0.55 0.39 85 1021.1
20260507010524 45 257 0.0 0.0 0.00 0.55 0.39 85 1020.9
20260507010002 45 257 0.0 0.0 0.00 0.55 0.39 85 1020.9
20260507005502 45 270 0.0 6.0 0.00 0.55 0.39 85 1021.0
20260507005002 45 273 0.0 6.0 0.00 0.55 0.39 84 1021.0
20260507004502 45 254 4.0 6.0 0.00 0.55 0.39 84 1021.1
20260507004003 45 256 3.0 6.0 0.00 0.55 0.39 83 1021.0
20260507003502 45 243 3.0 6.0 0.00 0.55 0.39 82 1021.1
20260507003003 46 258 4.0 7.0 0.00 0.55 0.39 82 1021.1
20260507002523 46 266 3.0 7.0 0.00 0.55 0.39 84 1021.1
20260507002002 46 272 4.0 7.0 0.00 0.55 0.39 85 1021.0
20260507001503 46 260 4.0 7.0 0.00 0.55 0.39 84 1020.9
20260507001002 46 266 4.0 7.0 0.00 0.55 0.39 85 1021.0
20260507000502 45 255 4.0 8.0 0.00 0.55 0.39 84 1021.1
20260507000002 45 253 4.0 10.0 0.01 0.55 0.39 85 1021.1
20260506235502 45 260 6.0 10.0 0.01 0.55 0.39 85 1021.6
20260506235002 45 266 5.0 11.0 0.01 0.55 0.39 86 1021.7
20260506234502 45 254 7.0 11.0 0.01 0.55 0.39 86 1021.5
20260506234002 45 252 5.0 10.0 0.01 0.55 0.39 85 1021.4
20260506233523 45 256 7.0 10.0 0.01 0.55 0.39 86 1021.4
20260506233003 45 256 5.0 8.0 0.00 0.54 0.38 86 1021.4
20260506232502 45 252 4.0 6.0 0.00 0.54 0.38 86 1021.4
20260506232002 45 252 4.0 7.0 0.00 0.54 0.38 85 1021.3
20260506231502 45 263 4.0 7.0 0.00 0.54 0.38 85 1021.4
20260506231002 45 257 5.0 7.0 0.00 0.55 0.38 85 1021.3
20260506230502 46 245 2.0 6.0 0.00 0.55 0.38 85 1021.2
20260506230002 46 251 4.0 6.0 0.00 0.55 0.38 85 1021.3
20260506225523 46 240 3.0 6.0 0.00 0.55 0.38 85 1021.3
20260506225002 46 240 3.0 6.0 0.00 0.55 0.38 86 1021.3
20260506224503 46 257 2.0 6.0 0.00 0.55 0.38 86 1021.3
20260506224002 46 238 3.0 5.0 0.00 0.56 0.38 86 1021.2
20260506223502 46 239 2.0 5.0 0.00 0.56 0.38 85 1021.2
20260506223002 46 261 2.0 5.0 0.00 0.56 0.38 85 1021.1
20260506222502 46 249 4.0 5.0 0.00 0.57 0.38 85 1021.1
20260506222023 46 246 3.0 5.0 0.00 0.57 0.38 84 1021.2
20260506221502 46 245 3.0 6.0 0.00 0.58 0.38 84 1021.1
20260506221003 46 265 3.0 7.0 0.00 0.59 0.38 84 1021.1
20260506220502 46 251 4.0 7.0 0.00 0.59 0.38 84 1021.1
20260506220002 46 241 1.0 6.0 0.01 0.60 0.38 84 1021.3
20260506215503 46 250 3.0 5.0 0.01 0.60 0.38 83 1021.3
20260506215002 46 238 2.0 5.0 0.01 0.61 0.38 83 1021.2
20260506214502 46 236 2.0 4.0 0.01 0.61 0.38 83 1021.2
20260506214002 46 240 1.0 4.0 0.01 0.61 0.38 83 1021.2
20260506213502 45 142 0.0 2.0 0.01 0.61 0.38 83 1021.2
20260506213002 45 139 0.0 2.0 0.01 0.61 0.38 83 1021.3
20260506212502 46 181 1.0 2.0 0.01 0.61 0.38 83 1021.2
20260506212003 46 182 0.0 2.0 0.00 0.60 0.37 84 1021.4
20260506211502 46 181 1.0 2.0 0.00 0.60 0.37 84 1021.4
20260506211002 46 181 0.0 2.0 0.00 0.60 0.37 82 1021.4
20260506210502 46 181 0.0 2.0 0.00 0.60 0.37 83 1021.5
20260506210002 47 178 1.0 5.0 0.00 0.60 0.37 83 1021.4
20260506205502 47 146 2.0 6.0 0.00 0.60 0.37 82 1021.3
20260506205002 47 156 1.0 6.0 0.00 0.60 0.37 83 1021.4
20260506204502 47 156 1.0 3.0 0.00 0.60 0.37 83 1021.5
20260506204002 47 156 1.0 5.0 0.00 0.60 0.37 83 1021.5
20260506203502 47 156 2.0 5.0 0.00 0.60 0.37 83 1021.5
20260506203002 47 156 2.0 6.0 0.00 0.60 0.37 83 1021.6
20260506202503 47 157 2.0 6.0 0.00 0.60 0.37 83 1021.5
20260506202023 47 199 1.0 5.0 0.00 0.60 0.37 84 1021.6
20260506201502 46 153 2.0 5.0 0.00 0.60 0.37 85 1021.7
20260506201023 46 153 2.0 4.0 0.00 0.60 0.37 87 1021.7
20260506200523 46 153 0.0 4.0 0.00 0.60 0.37 85 1021.7
20260506200003 46 153 1.0 5.0 0.00 0.60 0.37 86 1021.8
20260506195502 45 153 1.0 5.0 0.00 0.60 0.37 86 1021.7
20260506195002 45 153 2.0 5.0 0.00 0.60 0.37 86 1021.8
20260506194502 45 153 0.0 3.0 0.00 0.60 0.37 86 1021.7
20260506194002 45 153 0.0 5.0 0.00 0.60 0.37 85 1021.6
20260506193523 45 153 1.0 5.0 0.00 0.60 0.37 85 1021.8
20260506193002 46 146 0.0 5.0 0.00 0.60 0.37 87 1021.8
20260506192502 45 119 2.0 5.0 0.00 0.60 0.37 88 1021.8
20260506192002 45 69 2.0 5.0 0.00 0.60 0.37 89 1021.8
20260506191503 44 85 1.0 3.0 0.00 0.60 0.37 90 1021.9
20260506191002 44 77 1.0 5.0 0.00 0.60 0.37 90 1021.9
20260506190502 44 70 1.0 5.0 0.00 0.60 0.37 91 1021.9
20260506190002 44 50 3.0 5.0 0.00 0.60 0.37 92 1022.0
20260506185502 44 327 2.0 4.0 0.00 0.60 0.37 92 1022.0
20260506185002 43 327 3.0 4.0 0.00 0.60 0.37 93 1022.3
20260506184502 43 327 1.0 6.0 0.00 0.60 0.37 93 1022.2
20260506184023 43 10 2.0 6.0 0.00 0.60 0.37 93 1022.3
20260506183502 42 328 1.0 5.0 0.00 0.60 0.37 93 1022.2
20260506183002 42 328 2.0 5.0 0.00 0.60 0.37 94 1022.3
20260506182503 42 60 2.0 5.0 0.00 0.60 0.37 94 1022.5
20260506182002 42 59 2.0 5.0 0.00 0.60 0.37 94 1022.4
20260506181502 42 14 2.0 5.0 0.00 0.60 0.37 94 1022.5
20260506181002 41 24 2.0 6.0 0.00 0.60 0.37 94 1022.6
20260506180502 41 6 2.0 6.0 0.00 0.60 0.37 94 1022.6
20260506180003 41 54 3.0 7.0 0.00 0.60 0.37 94 1022.6
20260506175502 41 60 1.0 7.0 0.00 0.60 0.37 94 1022.5
20260506175023 40 44 3.0 7.0 0.00 0.60 0.37 95 1022.6
20260506174502 40 48 3.0 7.0 0.00 0.60 0.37 94 1022.6
20260506174002 40 41 3.0 7.0 0.00 0.60 0.37 94 1022.6
20260506173502 40 333 3.0 6.0 0.00 0.60 0.37 94 1022.7
20260506173002 39 333 3.0 5.0 0.00 0.60 0.37 94 1022.6
20260506172502 39 333 2.0 7.0 0.00 0.60 0.37 94 1022.6
20260506172003 39 16 2.0 7.0 0.00 0.60 0.37 95 1022.6
20260506171545 39 49 2.0 5.0 0.00 0.60 0.37 95 1022.5
20260506171002 39 53 3.0 5.0 0.00 0.60 0.37 94 1022.5
20260506170502 39 32 3.0 5.0 0.00 0.60 0.37 95 1022.5
20260506170002 38 44 2.0 5.0 0.02 0.60 0.37 94 1022.4
20260506165502 38 47 2.0 5.0 0.02 0.60 0.37 94 1022.5
20260506165002 38 47 3.0 5.0 0.02 0.60 0.37 94 1022.5
20260506164502 38 37 2.0 6.0 0.02 0.60 0.37 94 1022.6
20260506164002 37 36 3.0 6.0 0.02 0.60 0.37 94 1022.6
20260506163502 37 17 3.0 6.0 0.02 0.60 0.37 94 1022.5
20260506163002 37 26 1.0 4.0 0.02 0.60 0.37 94 1022.4
20260506162501 37 25 1.0 4.0 0.01 0.59 0.36 94 1022.4
20260506162002 37 29 0.0 4.0 0.01 0.59 0.36 94 1022.3
20260506161002 37 28 1.0 5.0 0.01 0.59 0.36 94 1022.2
20260506160502 37 28 3.0 5.0 0.01 0.59 0.36 94 1022.2
20260506160002 37 319 2.0 5.0 0.00 0.58 0.35 94 1022.2
20260506155503 37 337 1.0 4.0 0.02 0.58 0.35 94 1022.2
20260506155002 37 18 1.0 4.0 0.02 0.58 0.35 94 1022.1
20260506154502 37 18 2.0 4.0 0.02 0.58 0.35 94 1022.1
20260506154002 37 22 1.0 4.0 0.02 0.58 0.35 94 1022.0
20260506153502 36 25 2.0 4.0 0.01 0.57 0.34 94 1021.9
20260506153002 36 303 1.0 4.0 0.01 0.57 0.34 94 1022.0
20260506152502 36 303 2.0 5.0 0.01 0.57 0.34 94 1022.0
20260506152003 36 302 2.0 5.0 0.01 0.57 0.34 94 1022.0
20260506151502 36 269 2.0 5.0 0.01 0.57 0.34 94 1022.1
20260506151002 36 279 2.0 4.0 0.00 0.56 0.33 94 1022.2
20260506150502 36 303 0.0 4.0 0.00 0.56 0.33 94 1022.1
20260506150002 36 303 1.0 4.0 0.05 0.56 0.33 94 1022.0
20260506145502 36 235 2.0 4.0 0.04 0.55 0.32 94 1022.1
20260506145002 36 235 1.0 3.0 0.04 0.55 0.32 94 1022.1
20260506144523 36 235 2.0 3.0 0.04 0.55 0.32 94 1022.0
20260506144002 36 235 2.0 3.0 0.03 0.54 0.31 94 1022.0
20260506143502 36 235 1.0 3.0 0.03 0.54 0.31 94 1021.9
20260506143003 36 152 0.0 2.0 0.02 0.53 0.30 94 1021.8
20260506142523 36 152 0.0 1.0 0.02 0.53 0.30 94 1021.8
20260506142002 36 152 1.0 1.0 0.02 0.53 0.30 94 1021.8
20260506141502 36 152 0.0 0.0 0.01 0.52 0.29 94 1021.8
20260506141002 36 152 0.0 0.0 0.01 0.52 0.29 94 1021.6
20260506140501 36 152 0.0 1.0 0.00 0.51 0.28 94 1021.7
20260506140002 36 152 0.0 1.0 0.04 0.51 0.28 94 1021.5
20260506135501 36 152 0.0 1.0 0.04 0.51 0.28 94 1021.4
20260506135044 36 152 0.0 2.0 0.04 0.51 0.28 94 1021.4